status,avgMeasuredTime,avgSpeed,extID,medianMeasuredTime,TIMESTAMP,vehicleCount,_id,REPORT_ID
OK,66,52,917,66,2014-08-01T08:00:00,0,20746972,195472
OK,66,52,917,66,2014-08-01T08:05:00,0,20747421,195472
OK,66,52,917,66,2014-08-01T08:10:00,0,20747794,195472
OK,66,52,917,66,2014-08-01T08:15:00,0,20748243,195472
OK,66,52,917,66,2014-08-01T08:20:00,0,20748692,195472
OK,66,52,917,66,2014-08-01T08:25:00,0,20749141,195472
OK,57,60,917,57,2014-08-01T08:30:00,1,20749590,195472
OK,57,60,917,57,2014-08-01T08:35:00,0,20750039,195472
OK,57,60,917,57,2014-08-01T08:40:00,1,20750488,195472
OK,57,60,917,57,2014-08-01T08:45:00,1,20750937,195472
OK,57,60,917,57,2014-08-01T08:50:00,0,20751386,195472
OK,57,60,917,57,2014-08-01T08:55:00,0,20751835,195472
OK,57,60,917,57,2014-08-01T09:00:00,0,20752284,195472
OK,57,60,917,57,2014-08-01T09:05:00,0,20752733,195472
OK,100,34,917,100,2014-08-01T09:10:00,2,20753182,195472
OK,97,35,917,97,2014-08-01T09:20:00,2,20754080,195472
OK,99,34,917,99,2014-08-01T09:25:00,4,20754529,195472
OK,101,34,917,101,2014-08-01T09:30:00,2,20754978,195472
OK,61,56,917,61,2014-08-01T09:35:00,1,20755427,195472
OK,61,56,917,61,2014-08-01T09:40:00,1,20755876,195472
OK,95,36,917,95,2014-08-01T09:45:00,1,20756325,195472
OK,109,31,917,109,2014-08-01T09:50:00,2,20756774,195472
OK,106,32,917,106,2014-08-01T09:55:00,2,20757223,195472
OK,89,38,917,89,2014-08-01T10:00:00,1,20757672,195472
OK,67,51,917,67,2014-08-01T10:05:00,1,20758121,195472
OK,84,40,917,84,2014-08-01T10:15:00,0,20759019,195472
OK,84,40,917,84,2014-08-01T10:20:00,0,20759468,195472
OK,130,26,917,130,2014-08-01T10:25:00,1,20759917,195472
OK,102,33,917,102,2014-08-01T10:30:00,2,20760366,195472
OK,74,46,917,74,2014-08-01T10:35:00,1,20760815,195472
OK,74,46,917,74,2014-08-01T10:40:00,0,20761264,195472
OK,63,54,917,63,2014-08-01T10:45:00,1,20761713,195472
OK,98,35,917,98,2014-08-01T10:50:00,2,20762162,195472
OK,133,25,917,133,2014-08-01T10:55:00,1,20762611,195472
OK,63,54,917,63,2014-08-01T11:00:00,3,20763060,195472
OK,63,54,917,63,2014-08-01T11:05:00,3,20763509,195472
OK,65,52,917,65,2014-08-01T11:10:00,1,20763958,195472
OK,65,52,917,65,2014-08-01T11:15:00,3,20764406,195472
OK,62,55,917,62,2014-08-01T11:20:00,1,20764855,195472
OK,62,55,917,62,2014-08-01T11:25:00,0,20765304,195472
OK,62,55,917,62,2014-08-01T11:30:00,0,20765753,195472
OK,64,53,917,64,2014-08-01T11:35:00,1,20766202,195472
OK,64,53,917,64,2014-08-01T11:40:00,1,20766651,195472
OK,64,53,917,64,2014-08-01T11:45:00,0,20767100,195472
OK,64,53,917,64,2014-08-01T11:50:00,0,20767549,195472
OK,107,32,917,107,2014-08-01T11:55:00,1,20767998,195472
OK,111,30,917,111,2014-08-01T12:00:00,2,20768447,195472
OK,115,29,917,115,2014-08-01T12:05:00,1,20768896,195472
OK,117,29,917,117,2014-08-01T12:10:00,3,20769345,195472
OK,85,40,917,85,2014-08-01T12:15:00,4,20769794,195472
OK,52,66,917,52,2014-08-01T12:20:00,2,20770243,195472
OK,52,66,917,52,2014-08-01T12:25:00,0,20770692,195472
OK,68,50,917,68,2014-08-01T12:30:00,2,20771141,195472
OK,68,50,917,68,2014-08-01T12:35:00,2,20771590,195472
OK,69,49,917,69,2014-08-01T12:40:00,1,20772039,195472
OK,61,56,917,61,2014-08-01T12:45:00,2,20772488,195472
OK,54,63,917,54,2014-08-01T12:50:00,0,20772937,195472
OK,54,63,917,54,2014-08-01T12:55:00,0,20773386,195472
OK,124,27,917,124,2014-08-01T13:00:00,1,20773835,195472
OK,125,27,917,125,2014-08-01T13:05:00,4,20774284,195472
OK,110,31,917,110,2014-08-01T13:10:00,4,20774733,195472
OK,91,37,917,91,2014-08-01T13:15:00,2,20775182,195472
OK,64,53,917,64,2014-08-01T13:20:00,2,20775631,195472
OK,62,55,917,62,2014-08-01T13:25:00,4,20776080,195472
OK,64,53,917,64,2014-08-01T13:30:00,5,20776529,195472
OK,76,45,917,76,2014-08-01T13:35:00,1,20776978,195472
OK,58,59,917,58,2014-08-01T13:40:00,2,20777427,195472
OK,96,35,917,96,2014-08-01T13:45:00,7,20777876,195472
OK,100,34,917,100,2014-08-01T13:50:00,5,20778325,195472
OK,114,30,917,114,2014-08-01T14:00:00,4,20779223,195472
OK,145,23,917,145,2014-08-01T14:05:00,1,20779672,195472
OK,115,29,917,115,2014-08-01T14:10:00,1,20780121,195472
OK,115,29,917,115,2014-08-01T14:15:00,1,20780570,195472
OK,115,29,917,115,2014-08-01T14:20:00,0,20781019,195472
OK,115,29,917,115,2014-08-01T14:25:00,0,20781468,195472
OK,121,28,917,121,2014-08-01T14:30:00,1,20781917,195472
OK,121,28,917,121,2014-08-01T14:35:00,3,20782366,195472
OK,94,36,917,94,2014-08-01T14:40:00,5,20782815,195472
OK,93,36,917,93,2014-08-01T14:45:00,2,20783264,195472
OK,138,24,917,138,2014-08-01T14:50:00,1,20783713,195472
OK,138,24,917,138,2014-08-01T14:55:00,0,20784162,195472
OK,58,59,917,58,2014-08-01T15:00:00,3,20784611,195472
OK,58,59,917,58,2014-08-01T15:05:00,3,20785060,195472
OK,121,28,917,121,2014-08-01T15:10:00,1,20785509,195472
OK,121,28,917,121,2014-08-01T15:15:00,1,20785958,195472
OK,121,28,917,121,2014-08-01T15:20:00,0,20786407,195472
OK,121,28,917,121,2014-08-01T15:25:00,0,20786856,195472
OK,121,28,917,121,2014-08-01T15:30:00,0,20787305,195472
OK,121,28,917,121,2014-08-01T15:35:00,0,20787754,195472
OK,63,54,917,63,2014-08-01T15:40:00,1,20788203,195472
OK,63,54,917,63,2014-08-01T15:45:00,1,20788652,195472
OK,63,54,917,63,2014-08-01T15:50:00,0,20789101,195472
OK,63,54,917,63,2014-08-01T15:55:00,0,20789550,195472
OK,57,60,917,57,2014-08-01T16:00:00,2,20789999,195472
OK,73,47,917,73,2014-08-01T16:05:00,3,20790448,195472
OK,73,47,917,73,2014-08-01T16:10:00,3,20790897,195472
OK,62,55,917,62,2014-08-01T16:15:00,1,20791346,195472
OK,70,49,917,70,2014-08-01T16:20:00,1,20791795,195472
OK,70,49,917,70,2014-08-01T16:25:00,1,20792244,195472
OK,70,49,917,70,2014-08-01T16:30:00,0,20792693,195472
OK,70,49,917,70,2014-08-01T16:35:00,0,20793142,195472
OK,101,34,917,101,2014-08-01T16:40:00,1,20793591,195472
OK,101,34,917,101,2014-08-01T16:45:00,0,20794040,195472
OK,63,54,917,63,2014-08-01T16:50:00,2,20794489,195472
OK,65,52,917,65,2014-08-01T16:55:00,6,20794938,195472
OK,65,52,917,65,2014-08-01T17:00:00,3,20795387,195472
OK,68,50,917,68,2014-08-01T17:05:00,0,20795836,195472
OK,68,50,917,68,2014-08-01T17:10:00,0,20796285,195472
OK,68,50,917,68,2014-08-01T17:15:00,0,20796734,195472
OK,58,59,917,58,2014-08-01T17:20:00,1,20797183,195472
OK,58,59,917,58,2014-08-01T17:25:00,1,20797632,195472
OK,58,59,917,58,2014-08-01T17:30:00,0,20798081,195472
OK,58,59,917,58,2014-08-01T17:35:00,0,20798530,195472
OK,58,59,917,58,2014-08-01T17:40:00,0,20798979,195472
OK,109,31,917,109,2014-08-01T17:45:00,1,20799428,195472
OK,61,56,917,61,2014-08-01T17:50:00,4,20799877,195472
OK,59,58,917,59,2014-08-01T17:55:00,3,20800326,195472
OK,55,62,917,55,2014-08-01T18:00:00,1,20800775,195472
OK,55,62,917,55,2014-08-01T18:05:00,0,20801224,195472
OK,55,62,917,55,2014-08-01T18:10:00,0,20801673,195472
OK,55,62,917,55,2014-08-01T18:15:00,0,20802122,195472
OK,55,62,917,55,2014-08-01T18:20:00,0,20802571,195472
OK,55,62,917,55,2014-08-01T18:25:00,0,20803020,195472
OK,55,62,917,55,2014-08-01T18:30:00,0,20803469,195472
OK,83,41,917,83,2014-08-01T18:35:00,1,20803918,195472
OK,77,44,917,77,2014-08-01T18:40:00,2,20804367,195472
OK,71,48,917,71,2014-08-01T18:45:00,1,20804816,195472
OK,71,48,917,71,2014-08-01T18:50:00,0,20805265,195472
OK,71,48,917,71,2014-08-01T18:55:00,0,20805714,195472
OK,71,48,917,71,2014-08-01T19:00:00,0,20806163,195472
OK,69,49,917,69,2014-08-01T19:05:00,1,20806612,195472
OK,69,49,917,69,2014-08-01T19:10:00,1,20807061,195472
OK,69,49,917,69,2014-08-01T19:15:00,0,20807510,195472
OK,69,49,917,69,2014-08-01T19:20:00,0,20807959,195472
OK,69,49,917,69,2014-08-01T19:25:00,0,20808408,195472
OK,69,49,917,69,2014-08-01T19:30:00,0,20808857,195472
OK,69,49,917,69,2014-08-01T19:35:00,0,20809306,195472
OK,69,49,917,69,2014-08-01T19:40:00,0,20809755,195472
OK,69,49,917,69,2014-08-01T19:45:00,0,20810204,195472
OK,57,60,917,57,2014-08-01T19:50:00,1,20810653,195472
OK,57,60,917,57,2014-08-01T19:55:00,1,20811102,195472
OK,57,60,917,57,2014-08-01T22:00:00,0,20816831,195472
OK,57,60,917,57,2014-08-02T00:00:00,0,20823270,195472
OK,57,60,917,57,2014-08-02T00:05:00,0,20823719,195472
OK,57,60,917,57,2014-08-02T00:10:00,0,20824168,195472
OK,57,60,917,57,2014-08-02T00:15:00,0,20824617,195472
OK,57,60,917,57,2014-08-02T00:20:00,0,20825066,195472
OK,57,60,917,57,2014-08-02T00:25:00,0,20825515,195472
OK,57,60,917,57,2014-08-02T00:30:00,0,20825964,195472
OK,57,60,917,57,2014-08-02T00:35:00,0,20826413,195472
OK,57,60,917,57,2014-08-02T00:40:00,0,20826862,195472
OK,57,60,917,57,2014-08-02T00:45:00,0,20827311,195472
OK,57,60,917,57,2014-08-02T00:50:00,0,20827760,195472
OK,57,60,917,57,2014-08-02T00:55:00,0,20828209,195472
OK,57,60,917,57,2014-08-02T01:00:00,0,20828658,195472
OK,57,60,917,57,2014-08-02T01:05:00,0,20829107,195472
OK,57,60,917,57,2014-08-02T01:10:00,0,20829556,195472
OK,57,60,917,57,2014-08-02T01:15:00,0,20830005,195472
OK,57,60,917,57,2014-08-02T01:20:00,0,20830454,195472
OK,85,40,917,85,2014-08-02T01:25:00,2,20830903,195472
OK,85,40,917,85,2014-08-02T01:30:00,2,20831352,195472
OK,85,40,917,85,2014-08-02T01:35:00,0,20831801,195472
OK,85,40,917,85,2014-08-02T01:40:00,0,20832250,195472
OK,85,40,917,85,2014-08-02T01:45:00,0,20832699,195472
OK,85,40,917,85,2014-08-02T01:50:00,0,20833148,195472
OK,85,40,917,85,2014-08-02T01:55:00,0,20833597,195472
OK,85,40,917,85,2014-08-02T02:00:00,0,20834046,195472
OK,85,40,917,85,2014-08-02T02:05:00,0,20834495,195472
OK,85,40,917,85,2014-08-02T02:10:00,0,20834944,195472
OK,85,40,917,85,2014-08-02T02:15:00,0,20835393,195472
OK,85,40,917,85,2014-08-02T02:20:00,0,20835842,195472
OK,85,40,917,85,2014-08-02T02:25:00,0,20836291,195472
OK,85,40,917,85,2014-08-02T02:30:00,0,20836740,195472
OK,85,40,917,85,2014-08-02T02:35:00,0,20837189,195472
OK,85,40,917,85,2014-08-02T02:40:00,0,20837638,195472
OK,85,40,917,85,2014-08-02T02:45:00,0,20838087,195472
OK,72,47,917,72,2014-08-02T02:50:00,1,20838536,195472
OK,72,47,917,72,2014-08-02T02:55:00,0,20838985,195472
OK,72,47,917,72,2014-08-02T03:00:00,0,20839434,195472
OK,72,47,917,72,2014-08-02T03:05:00,0,20839883,195472
OK,72,47,917,72,2014-08-02T03:10:00,0,20840332,195472
OK,72,47,917,72,2014-08-02T03:15:00,0,20840781,195472
OK,72,47,917,72,2014-08-02T03:20:00,0,20841230,195472
OK,72,47,917,72,2014-08-02T03:25:00,0,20841679,195472
OK,72,47,917,72,2014-08-02T03:30:00,0,20842128,195472
OK,72,47,917,72,2014-08-02T03:35:00,0,20842577,195472
OK,72,47,917,72,2014-08-02T03:40:00,0,20843026,195472
OK,72,47,917,72,2014-08-02T03:45:00,0,20843475,195472
OK,72,47,917,72,2014-08-02T03:50:00,0,20843924,195472
OK,72,47,917,72,2014-08-02T03:55:00,0,20844373,195472
OK,72,47,917,72,2014-08-02T06:00:00,0,20851827,195472
OK,72,47,917,72,2014-08-02T06:05:00,0,20852276,195472
OK,72,47,917,72,2014-08-02T06:10:00,0,20852725,195472
OK,72,47,917,72,2014-08-02T06:15:00,0,20853174,195472
OK,72,47,917,72,2014-08-02T06:20:00,0,20853623,195472
OK,72,47,917,72,2014-08-02T06:25:00,0,20854072,195472
OK,72,47,917,72,2014-08-02T06:30:00,0,20854521,195472
OK,72,47,917,72,2014-08-02T06:35:00,0,20854970,195472
OK,72,47,917,72,2014-08-02T06:40:00,0,20855419,195472
OK,72,47,917,72,2014-08-02T06:45:00,0,20855868,195472
OK,72,47,917,72,2014-08-02T06:50:00,0,20856317,195472
OK,72,47,917,72,2014-08-02T06:55:00,0,20856766,195472
OK,72,47,917,72,2014-08-02T07:00:00,0,20857215,195472
OK,72,47,917,72,2014-08-02T07:05:00,0,20857664,195472
OK,72,47,917,72,2014-08-02T07:10:00,0,20858113,195472
OK,72,47,917,72,2014-08-02T07:15:00,0,20858562,195472
OK,72,47,917,72,2014-08-02T07:20:00,0,20859011,195472
OK,72,47,917,72,2014-08-02T07:25:00,0,20859460,195472
OK,72,47,917,72,2014-08-02T07:30:00,0,20859909,195472
OK,72,47,917,72,2014-08-02T07:35:00,0,20860358,195472
OK,72,47,917,72,2014-08-02T07:40:00,0,20860807,195472
OK,72,47,917,72,2014-08-02T07:45:00,0,20861256,195472
OK,104,33,917,104,2014-08-02T07:50:00,1,20861705,195472
OK,104,33,917,104,2014-08-02T07:55:00,0,20862154,195472
OK,71,48,917,71,2014-08-02T08:00:00,1,20862603,195472
OK,71,48,917,71,2014-08-02T08:05:00,1,20863052,195472
OK,71,48,917,71,2014-08-02T08:10:00,0,20863501,195472
OK,109,31,917,109,2014-08-02T08:15:00,1,20863950,195472
OK,85,40,917,85,2014-08-02T08:20:00,2,20864399,195472
OK,114,30,917,114,2014-08-02T08:25:00,2,20864848,195472
OK,129,26,917,129,2014-08-02T08:30:00,2,20865297,195472
OK,132,26,917,132,2014-08-02T08:35:00,3,20865746,195472
OK,125,27,917,125,2014-08-02T08:40:00,2,20866195,195472
OK,118,29,917,118,2014-08-02T08:45:00,1,20866644,195472
OK,167,20,917,167,2014-08-02T08:50:00,1,20867093,195472
OK,167,20,917,167,2014-08-02T08:55:00,1,20867542,195472
OK,167,20,917,167,2014-08-02T09:00:00,0,20867991,195472
OK,857,4,917,857,2014-08-02T09:05:00,1,20868440,195472
OK,108,31,917,108,2014-08-02T09:10:00,1,20868889,195472
OK,108,31,917,108,2014-08-02T09:15:00,1,20869338,195472
OK,108,31,917,108,2014-08-02T09:20:00,1,20869787,195472
OK,108,31,917,108,2014-08-02T09:25:00,1,20870236,195472
OK,108,31,917,108,2014-08-02T09:30:00,0,20870685,195472
OK,108,31,917,108,2014-08-02T09:35:00,0,20871134,195472
OK,108,31,917,108,2014-08-02T09:40:00,0,20871583,195472
OK,108,31,917,108,2014-08-02T09:45:00,0,20872032,195472
OK,160,21,917,160,2014-08-02T09:50:00,1,20872481,195472
OK,124,27,917,124,2014-08-02T09:55:00,3,20872930,195472
OK,124,27,917,124,2014-08-02T10:00:00,1,20873379,195472
OK,124,27,917,124,2014-08-02T10:05:00,0,20873828,195472
OK,124,27,917,124,2014-08-02T10:10:00,0,20874277,195472
OK,135,25,917,135,2014-08-02T10:15:00,1,20874726,195472
OK,135,25,917,135,2014-08-02T10:20:00,1,20875175,195472
OK,135,25,917,135,2014-08-02T10:25:00,0,20875624,195472
OK,66,52,917,66,2014-08-02T10:30:00,1,20876073,195472
OK,96,35,917,96,2014-08-02T10:35:00,1,20876522,195472
OK,96,35,917,96,2014-08-02T10:40:00,1,20876971,195472
OK,89,38,917,89,2014-08-02T10:45:00,1,20877420,195472
OK,89,38,917,89,2014-08-02T10:50:00,0,20877869,195472
OK,130,26,917,130,2014-08-02T10:55:00,1,20878318,195472
OK,107,32,917,107,2014-08-02T11:00:00,2,20878767,195472
OK,85,40,917,85,2014-08-02T11:05:00,1,20879216,195472
OK,85,40,917,85,2014-08-02T11:10:00,0,20879665,195472
OK,68,50,917,68,2014-08-02T11:15:00,2,20880114,195472
OK,68,50,917,68,2014-08-02T11:20:00,2,20880563,195472
OK,68,50,917,68,2014-08-02T11:25:00,0,20881012,195472
OK,68,50,917,68,2014-08-02T11:30:00,0,20881461,195472
OK,131,26,917,131,2014-08-02T11:35:00,1,20881910,195472
OK,125,27,917,125,2014-08-02T11:40:00,2,20882359,195472
OK,134,25,917,134,2014-08-02T11:45:00,2,20882808,195472
OK,124,27,917,124,2014-08-02T11:50:00,1,20883257,195472
OK,136,25,917,136,2014-08-02T11:55:00,2,20883706,195472
OK,149,23,917,149,2014-08-02T12:00:00,1,20884155,195472
OK,149,23,917,149,2014-08-02T12:05:00,0,20884604,195472
OK,59,58,917,59,2014-08-02T12:10:00,1,20885053,195472
OK,115,29,917,115,2014-08-02T12:15:00,2,20885502,195472
OK,172,19,917,172,2014-08-02T12:20:00,1,20885951,195472
OK,172,19,917,172,2014-08-02T12:25:00,0,20886400,195472
OK,172,19,917,172,2014-08-02T12:30:00,0,20886849,195472
OK,172,19,917,172,2014-08-02T12:35:00,0,20887298,195472
OK,172,19,917,172,2014-08-02T12:40:00,0,20887747,195472
OK,172,19,917,172,2014-08-02T12:45:00,0,20888196,195472
OK,172,19,917,172,2014-08-02T12:50:00,0,20888645,195472
OK,172,19,917,172,2014-08-02T12:55:00,0,20889094,195472
OK,99,34,917,99,2014-08-02T13:00:00,2,20889543,195472
OK,108,31,917,108,2014-08-02T13:05:00,2,20889992,195472
OK,107,32,917,107,2014-08-02T13:10:00,1,20890441,195472
OK,107,32,917,107,2014-08-02T13:15:00,0,20890890,195472
OK,107,32,917,107,2014-08-02T13:20:00,0,20891339,195472
OK,107,32,917,107,2014-08-02T13:25:00,0,20891788,195472
OK,107,32,917,107,2014-08-02T13:30:00,0,20892237,195472
OK,111,30,917,111,2014-08-02T13:35:00,1,20892686,195472
OK,111,30,917,111,2014-08-02T13:40:00,0,20893135,195472
OK,67,51,917,67,2014-08-02T13:45:00,1,20893584,195472
OK,122,28,917,122,2014-08-02T13:50:00,1,20894033,195472
OK,114,30,917,114,2014-08-02T13:55:00,1,20894482,195472
OK,109,31,917,109,2014-08-02T14:00:00,2,20894931,195472
OK,104,33,917,104,2014-08-02T14:05:00,1,20895380,195472
OK,104,33,917,104,2014-08-02T14:10:00,0,20895829,195472
OK,104,33,917,104,2014-08-02T14:15:00,0,20896278,195472
OK,104,33,917,104,2014-08-02T14:20:00,0,20896727,195472
OK,104,33,917,104,2014-08-02T14:25:00,0,20897176,195472
OK,114,30,917,114,2014-08-02T14:30:00,2,20897625,195472
OK,114,30,917,114,2014-08-02T14:35:00,0,20898074,195472
OK,114,30,917,114,2014-08-02T14:40:00,0,20898523,195472
OK,114,30,917,114,2014-08-02T14:45:00,0,20898972,195472
OK,102,33,917,102,2014-08-02T14:50:00,1,20899421,195472
OK,118,29,917,118,2014-08-02T14:55:00,2,20899870,195472
OK,134,25,917,134,2014-08-02T15:00:00,1,20900319,195472
OK,107,32,917,107,2014-08-02T15:05:00,2,20900768,195472
OK,107,32,917,107,2014-08-02T15:10:00,0,20901217,195472
OK,107,32,917,107,2014-08-02T15:15:00,0,20901666,195472
OK,107,32,917,107,2014-08-02T15:20:00,0,20902115,195472
OK,107,32,917,107,2014-08-02T15:25:00,0,20902564,195472
OK,107,32,917,107,2014-08-02T15:30:00,0,20903013,195472
OK,107,32,917,107,2014-08-02T15:35:00,0,20903462,195472
OK,107,32,917,107,2014-08-02T15:40:00,0,20903911,195472
OK,107,32,917,107,2014-08-02T15:45:00,0,20904360,195472
OK,139,24,917,139,2014-08-02T15:50:00,1,20904809,195472
OK,139,24,917,139,2014-08-02T15:55:00,1,20905258,195472
OK,139,24,917,139,2014-08-02T16:00:00,0,20905707,195472
OK,139,24,917,139,2014-08-02T16:05:00,0,20906156,195472
OK,139,24,917,139,2014-08-02T16:10:00,0,20906605,195472
OK,115,29,917,115,2014-08-02T16:15:00,1,20907054,195472
OK,115,29,917,115,2014-08-02T16:20:00,1,20907503,195472
OK,66,52,917,66,2014-08-02T16:25:00,1,20907952,195472
OK,66,52,917,66,2014-08-02T16:30:00,1,20908401,195472
OK,66,52,917,66,2014-08-02T16:35:00,0,20908850,195472
OK,109,31,917,109,2014-08-02T16:40:00,1,20909299,195472
OK,109,31,917,109,2014-08-02T16:45:00,0,20909748,195472
OK,118,29,917,118,2014-08-02T16:50:00,1,20910197,195472
OK,118,29,917,118,2014-08-02T16:55:00,1,20910646,195472
OK,118,29,917,118,2014-08-02T17:00:00,0,20911095,195472
OK,118,29,917,118,2014-08-02T17:05:00,0,20911544,195472
OK,118,29,917,118,2014-08-02T17:10:00,0,20911993,195472
OK,118,29,917,118,2014-08-02T17:15:00,0,20912442,195472
OK,118,29,917,118,2014-08-02T17:20:00,0,20912891,195472
OK,118,29,917,118,2014-08-02T17:25:00,0,20913340,195472
OK,118,29,917,118,2014-08-02T17:30:00,0,20913789,195472
OK,77,44,917,77,2014-08-02T17:35:00,2,20914238,195472
OK,77,44,917,77,2014-08-02T17:40:00,2,20914687,195472
OK,77,44,917,77,2014-08-02T17:45:00,0,20915136,195472
OK,77,44,917,77,2014-08-02T17:50:00,0,20915585,195472
OK,77,44,917,77,2014-08-02T17:55:00,0,20916034,195472
OK,112,30,917,112,2014-08-02T18:00:00,1,20916483,195472
OK,112,30,917,112,2014-08-02T18:05:00,1,20916932,195472
OK,112,30,917,112,2014-08-02T18:10:00,0,20917381,195472
OK,70,49,917,70,2014-08-02T18:15:00,1,20917830,195472
OK,70,49,917,70,2014-08-02T18:20:00,1,20918279,195472
OK,138,24,917,138,2014-08-02T18:25:00,1,20918728,195472
OK,138,24,917,138,2014-08-02T18:30:00,1,20919177,195472
OK,138,24,917,138,2014-08-02T18:35:00,0,20919626,195472
OK,138,24,917,138,2014-08-02T18:40:00,0,20920075,195472
OK,138,24,917,138,2014-08-02T18:45:00,0,20920524,195472
OK,138,24,917,138,2014-08-02T18:50:00,0,20920973,195472
OK,110,31,917,110,2014-08-02T18:55:00,1,20921422,195472
OK,128,26,917,128,2014-08-02T19:00:00,2,20921871,195472
OK,115,29,917,115,2014-08-02T19:05:00,3,20922320,195472
OK,112,30,917,112,2014-08-02T19:10:00,0,20922769,195472
OK,112,30,917,112,2014-08-02T19:15:00,0,20923218,195472
OK,112,30,917,112,2014-08-02T19:20:00,0,20923667,195472
OK,112,30,917,112,2014-08-02T19:25:00,0,20924116,195472
OK,112,30,917,112,2014-08-02T19:30:00,0,20924565,195472
OK,115,29,917,115,2014-08-02T19:35:00,1,20925014,195472
OK,108,31,917,108,2014-08-02T19:40:00,1,20925463,195472
OK,108,31,917,108,2014-08-02T19:45:00,1,20925912,195472
OK,108,31,917,108,2014-08-02T19:50:00,0,20926361,195472
OK,110,31,917,110,2014-08-02T19:55:00,1,20926810,195472
OK,110,31,917,110,2014-08-02T20:00:00,0,20927259,195472
OK,110,31,917,110,2014-08-02T20:05:00,0,20927708,195472
OK,120,28,917,120,2014-08-02T20:10:00,1,20928157,195472
OK,87,39,917,87,2014-08-02T20:15:00,1,20928606,195472
OK,87,39,917,87,2014-08-02T20:20:00,1,20929055,195472
OK,87,39,917,87,2014-08-02T20:25:00,0,20929504,195472
OK,87,39,917,87,2014-08-02T20:30:00,0,20929953,195472
OK,87,39,917,87,2014-08-02T20:35:00,0,20930402,195472
OK,87,39,917,87,2014-08-02T20:40:00,0,20930851,195472
OK,61,56,917,61,2014-08-02T20:45:00,0,20931300,195472
OK,61,56,917,61,2014-08-02T20:50:00,0,20931749,195472
OK,61,56,917,61,2014-08-02T20:55:00,0,20932198,195472
OK,61,56,917,61,2014-08-02T21:00:00,0,20932647,195472
OK,61,56,917,61,2014-08-02T21:05:00,0,20933096,195472
OK,61,56,917,61,2014-08-02T21:10:00,0,20933545,195472
OK,61,56,917,61,2014-08-02T21:15:00,0,20933994,195472
OK,61,56,917,61,2014-08-02T21:20:00,0,20934443,195472
OK,61,56,917,61,2014-08-02T21:25:00,0,20934892,195472
OK,61,56,917,61,2014-08-02T21:30:00,0,20935341,195472
OK,61,56,917,61,2014-08-02T21:35:00,0,20935790,195472
OK,61,56,917,61,2014-08-02T21:40:00,0,20936239,195472
OK,61,56,917,61,2014-08-02T21:45:00,0,20936688,195472
OK,61,56,917,61,2014-08-02T21:50:00,0,20937137,195472
OK,78,44,917,78,2014-08-02T21:55:00,1,20937586,195472
OK,78,44,917,78,2014-08-02T22:00:00,0,20938035,195472
OK,60,57,917,60,2014-08-02T22:05:00,1,20938484,195472
OK,62,55,917,62,2014-08-02T22:10:00,2,20938933,195472
OK,62,55,917,62,2014-08-02T22:15:00,0,20939382,195472
OK,62,55,917,62,2014-08-02T22:20:00,0,20939831,195472
OK,62,55,917,62,2014-08-02T22:25:00,0,20940280,195472
OK,62,55,917,62,2014-08-02T22:30:00,0,20940729,195472
OK,62,55,917,62,2014-08-02T22:35:00,0,20941178,195472
OK,62,55,917,62,2014-08-02T22:40:00,0,20941627,195472
OK,62,55,917,62,2014-08-02T22:45:00,0,20942076,195472
OK,62,55,917,62,2014-08-02T22:50:00,0,20942525,195472
OK,62,55,917,62,2014-08-02T22:55:00,0,20942974,195472
OK,62,55,917,62,2014-08-02T23:00:00,0,20943423,195472
OK,62,55,917,62,2014-08-02T23:10:00,0,20943872,195472
OK,62,55,917,62,2014-08-02T23:15:00,0,20944321,195472
OK,64,53,917,64,2014-08-02T23:20:00,1,20944770,195472
OK,64,53,917,64,2014-08-02T23:25:00,0,20945219,195472
OK,64,53,917,64,2014-08-02T23:30:00,0,20945668,195472
OK,64,53,917,64,2014-08-02T23:35:00,0,20946117,195472
OK,64,53,917,64,2014-08-02T23:40:00,0,20946566,195472
OK,64,53,917,64,2014-08-02T23:45:00,0,20947015,195472
OK,64,53,917,64,2014-08-02T23:50:00,0,20947464,195472
OK,64,53,917,64,2014-08-02T23:55:00,0,20947913,195472
OK,64,53,917,64,2014-08-03T00:00:00,0,20948362,195472
OK,64,53,917,64,2014-08-03T00:05:00,0,20948811,195472
OK,64,53,917,64,2014-08-03T00:10:00,0,20949259,195472
OK,64,53,917,64,2014-08-03T00:15:00,0,20949708,195472
OK,64,53,917,64,2014-08-03T00:20:00,0,20950157,195472
OK,64,53,917,64,2014-08-03T00:25:00,0,20950606,195472
OK,64,53,917,64,2014-08-03T00:30:00,0,20951055,195472
OK,64,53,917,64,2014-08-03T00:35:00,0,20951504,195472
OK,64,53,917,64,2014-08-03T00:40:00,0,20951953,195472
OK,64,53,917,64,2014-08-03T00:45:00,0,20952402,195472
OK,64,53,917,64,2014-08-03T00:50:00,0,20952851,195472
OK,64,53,917,64,2014-08-03T00:55:00,0,20953300,195472
OK,64,53,917,64,2014-08-03T01:00:00,0,20953749,195472
OK,64,53,917,64,2014-08-03T01:05:00,0,20954198,195472
OK,64,53,917,64,2014-08-03T01:10:00,0,20954647,195472
OK,64,53,917,64,2014-08-03T01:15:00,0,20955096,195472
OK,64,53,917,64,2014-08-03T01:20:00,0,20955545,195472
OK,64,53,917,64,2014-08-03T01:25:00,0,20955994,195472
OK,64,53,917,64,2014-08-03T01:30:00,0,20956443,195472
OK,64,53,917,64,2014-08-03T01:35:00,0,20956892,195472
OK,64,53,917,64,2014-08-03T01:40:00,0,20957341,195472
OK,64,53,917,64,2014-08-03T01:45:00,0,20957790,195472
OK,64,53,917,64,2014-08-03T01:50:00,0,20958239,195472
OK,64,53,917,64,2014-08-03T01:55:00,0,20958688,195472